Huron, SD

12:41 AM CDT on May 24, 2017 (GMT -0500)
Huron Regional

Weather History for KHON - August, 2014

Change the Weather History Date:

Wednesday, August 27, 2014

  Actual Average Record
Temperature  
Mean Temperature 70 °F 70 °F  
Max Temperature 80 °F 82 °F 102 °F (1973)
Min Temperature 59 °F 57 °F 40 °F (1896)
Degree Days  
Heating Degree Days 0 1  
Month to date heating degree days 10 11  
Since 1 June heating degree days 73 70  
Since 1 July heating degree days 33 19  
Cooling Degree Days 5 6  
Month to date cooling degree days 161 205  
Year to date cooling degree days 503 648  
Since 1 June cooling degree days 441 615  
Growing Degree Days 20 (Base 50)    
Moisture  
Dew Point 60 °F    
Average Humidity 78    
Maximum Humidity 93    
Minimum Humidity 62    
Precipitation  
Precipitation T in 0.06 in 1.52 in (1936)
Month to date precipitation 2.36 2.15  
Year to date precipitation 12.89 16.98  
Snow  
Snow 0.00 in 0.00 in 0.00 in ()
Month to date snowfall 0.0 0.0  
Since 1 June snowfall 0.0 0.0  
Since 1 July snowfall 0.0 0.0  
Snow Depth 0.00 in    
Sea Level Pressure  
Sea Level Pressure 30.11 in    
Wind  
Wind Speed 8 mph (SE)    
Max Wind Speed 15 mph    
Max Gust Speed 22 mph    
Visibility 10 miles    
Events      
T = Trace of Precipitation, MM = Missing Value Source: NWS Daily Summary

Daily Weather History Graph

Daily Weather History Graph

Search for Another Location

Airport or City:

Trip Planner

Search our weather history database for the weather conditions in past years. The results will help you decide how hot, cold, wet, or windy it might be!

Date:

Astronomy

Aug. 27, 2014 Rise Set
Actual Time 6:49 AM CDT 8:18 PM CDT
Civil Twilight 6:19 AM CDT 8:48 PM CDT
Nautical Twilight 5:42 AM CDT 9:24 PM CDT
Astronomical Twilight 5:03 AM CDT 10:03 PM CDT
Moon 8:53 AM CDT (8/27) 9:03 PM CDT (8/27)
Length of Visible Light 14h 28m
Length of Day
13h 28m
Waxing Crescent, 4% of the Moon is Illuminated
Aug 27
Waxing Crescent
Sep 2
First Quarter
Sep 8
Full
Sep 15
Last Quarter
Sep 24
New

Hourly Weather History & Observations

Time (CDT) Temp. Dew Point Humidity Pressure Visibility Wind Dir Wind Speed Gust Speed Precip Events Conditions
12:55 AM 62.1 °F 57.9 °F 86% 30.15 in 10.0 mi SE 4.6 mph - N/A   Mostly Cloudy
1:55 AM 60.1 °F 57.0 °F 90% 30.14 in 10.0 mi ESE 5.8 mph - N/A   Clear
2:55 AM 59.0 °F 57.0 °F 93% 30.14 in 10.0 mi ESE 5.8 mph - N/A   Clear
3:55 AM 59.0 °F 57.0 °F 93% 30.14 in 10.0 mi ESE 3.5 mph - N/A   Mostly Cloudy
4:55 AM 59.0 °F 57.0 °F 93% 30.14 in 10.0 mi ESE 5.8 mph - N/A   Overcast
5:55 AM 60.1 °F 57.0 °F 90% 30.14 in 10.0 mi ESE 3.5 mph - N/A   Overcast
6:07 AM 60.1 °F 57.0 °F 90% 30.14 in 10.0 mi East 4.6 mph - N/A   Overcast
6:14 AM 60.1 °F 57.0 °F 90% 30.14 in 10.0 mi East 4.6 mph - N/A   Overcast
6:55 AM 59.0 °F 57.0 °F 93% 30.14 in 10.0 mi ESE 4.6 mph - N/A   Mostly Cloudy
7:55 AM 61.0 °F 57.0 °F 87% 30.14 in 10.0 mi ESE 6.9 mph - N/A   Partly Cloudy
8:55 AM 62.1 °F 57.0 °F 84% 30.16 in 10.0 mi ESE 8.1 mph - N/A   Overcast
9:55 AM 62.6 °F 57.2 °F 82% 30.17 in 10.0 mi SE 9.2 mph - N/A   Overcast
10:55 AM 66.9 °F 59.0 °F 76% 30.17 in 10.0 mi SE 8.1 mph - N/A   Overcast
11:55 AM 69.1 °F 60.1 °F 73% 30.15 in 10.0 mi SE 6.9 mph - N/A   Overcast
12:55 PM 73.0 °F 62.1 °F 68% 30.11 in 10.0 mi SE 9.2 mph - N/A   Scattered Clouds
1:30 PM 75.0 °F 63.0 °F 66% 30.11 in 10.0 mi ESE 9.2 mph - N/A   Mostly Cloudy
1:55 PM 75.0 °F 63.0 °F 66% 30.09 in 10.0 mi ESE 11.5 mph - N/A   Scattered Clouds
2:55 PM 79.0 °F 64.0 °F 60% 30.07 in 10.0 mi ESE 10.4 mph - N/A   Scattered Clouds
3:55 PM 78.1 °F 64.0 °F 62% 30.06 in 10.0 mi SE 9.2 mph - N/A   Mostly Cloudy
4:55 PM 75.9 °F 64.0 °F 67% 30.05 in 10.0 mi South 8.1 mph - N/A   Overcast
5:55 PM 75.0 °F 64.0 °F 69% 30.04 in 10.0 mi SSE 13.8 mph - N/A   Overcast
6:55 PM 73.9 °F 64.0 °F 71% 30.04 in 10.0 mi SSE 10.4 mph - N/A   Overcast
7:55 PM 72.0 °F 64.0 °F 76% 30.03 in 10.0 mi SSE 6.9 mph - N/A   Mostly Cloudy
8:55 PM 70.0 °F 64.0 °F 81% 30.04 in 10.0 mi ESE 6.9 mph - N/A   Mostly Cloudy
9:55 PM 69.1 °F 64.0 °F 84% 30.04 in 10.0 mi SSE 5.8 mph - N/A   Clear
10:55 PM 68.0 °F 64.0 °F 87% 30.02 in 10.0 mi SE 6.9 mph - N/A   Clear